Weather History for K5M9 - April, 2014

Change the Weather History Date:

Sunday, April 6, 2014

  Actual Average (KPAH) Record (KPAH)
Temperature  
Mean Temperature 48 °F 55 °F  
Max Temperature 60 °F 66 °F 83 °F (1991)
Min Temperature 36 °F 44 °F 27 °F (1982)
Degree Days  
Heating Degree Days 17 11  
Month to date heating degree days 69  
Since 1 July heating degree days 3888  
Cooling Degree Days 0 1  
Month to date cooling degree days 6  
Year to date cooling degree days 13  
Moisture  
Dew Point 35 °F    
Average Humidity 61    
Maximum Humidity 86    
Minimum Humidity 40    
Precipitation  
Precipitation 0.00 in 0.15 in 2.06 in (1939)
Month to date precipitation 0.87  
Year to date precipitation 12.39  
Snow  
Snow 0.00 in 0.00 in 0.50 in (1971)
Month to date snowfall 0.0  
Since 1 July snowfall 9.1  
Snow Depth -    
Sea Level Pressure  
Sea Level Pressure 30.00 in    
Wind  
Wind Speed 6 mph (ENE)    
Max Wind Speed 14 mph    
Max Gust Speed 22 mph    
Visibility 10 miles    
Events      
T = Trace of Precipitation, MM = Missing Value Source: NWS Daily Summary

Daily Weather History Graph

Daily Weather History Graph

Search for Another Location

Airport or City:

Trip Planner

Search our weather history database for the weather conditions in past years. The results will help you decide how hot, cold, wet, or windy it might be!

Date:

Astronomy

Apr. 06, 2014 Rise Set
Actual Time 6:30 AM CDT 7:19 PM CDT
Civil Twilight 6:04 AM CDT 7:46 PM CDT
Nautical Twilight 5:32 AM CDT 8:17 PM CDT
Astronomical Twilight 5:00 AM CDT 8:49 PM CDT
Moon 11:35 AM CDT (4/6) 1:11 AM CDT (4/6)
Length of Visible Light 13h 41m
Length of Day
12h 48m
Waxing Crescent, 44% of the Moon is Illuminated
Apr 6
Waxing Crescent
Apr 7
First Quarter
Apr 15
Full
Apr 22
Last Quarter
Apr 29
New

Hourly Weather History & Observations

Time (CDT) Temp. Windchill Dew Point Humidity Pressure Visibility Wind Dir Wind Speed Gust Speed Precip Events Conditions
12:15 AM 39.9 °F 35.1 °F 32.9 °F 76% 30.13 in 10.0 mi NE 6.9 mph - N/A   Clear
12:35 AM 38.8 °F 34.6 °F 32.9 °F 79% 30.12 in 10.0 mi NE 5.8 mph - N/A   Clear
12:55 AM 38.7 °F 35.2 °F 32.9 °F 80% 30.12 in 10.0 mi NE 4.6 mph - N/A   Clear
1:15 AM 39.0 °F 35.7 °F 32.9 °F 79% 30.12 in 10.0 mi NE 4.6 mph - N/A   Clear
1:35 AM 38.8 °F 35.4 °F 32.9 °F 79% 30.11 in 10.0 mi NE 4.6 mph - N/A   Clear
1:55 AM 37.4 °F 32.1 °F 32.4 °F 82% 30.11 in 10.0 mi ENE 6.9 mph - N/A   Clear
2:15 AM 38.1 °F 32.9 °F 32.7 °F 81% 30.10 in 10.0 mi ENE 6.9 mph - N/A   Clear
2:35 AM 37.8 °F 33.3 °F 32.5 °F 81% 30.10 in 10.0 mi ENE 5.8 mph - N/A   Clear
2:55 AM 37.9 °F 34.4 °F 32.5 °F 81% 30.10 in 10.0 mi ENE 4.6 mph - N/A   Clear
3:15 AM 38.3 °F 34.8 °F 32.7 °F 80% 30.10 in 10.0 mi ENE 4.6 mph - N/A   Clear
3:35 AM 37.8 °F 34.2 °F 32.9 °F 83% 30.11 in 10.0 mi NE 4.6 mph - N/A   Clear
3:55 AM 37.8 °F 33.3 °F 32.5 °F 81% 30.11 in 10.0 mi ENE 5.8 mph - N/A   Clear
4:15 AM 37.4 °F 32.8 °F 32.5 °F 83% 30.10 in 10.0 mi ENE 5.8 mph - N/A   Clear
4:35 AM 37.6 °F 34.0 °F 32.7 °F 83% 30.10 in 10.0 mi ENE 4.6 mph - N/A   Clear
4:55 AM 36.9 °F 32.2 °F 32.5 °F 84% 30.10 in 10.0 mi NE 5.8 mph - N/A   Clear
5:15 AM 36.9 °F 33.1 °F 32.5 °F 84% 30.10 in 10.0 mi NE 4.6 mph - N/A   Clear
5:35 AM 36.7 °F 32.0 °F 32.7 °F 86% 30.10 in 10.0 mi NE 5.8 mph - N/A   Clear
5:55 AM 36.5 °F 32.7 °F 32.2 °F 84% 30.10 in 10.0 mi ENE 4.6 mph - N/A   Clear
6:15 AM 36.1 °F 31.4 °F 32.2 °F 86% 30.10 in 10.0 mi NE 5.8 mph - N/A   Clear
6:35 AM 36.7 °F 32.0 °F 32.4 °F 84% 30.10 in 10.0 mi NE 5.8 mph - N/A   Clear
6:55 AM 36.3 °F 33.7 °F 32.5 °F 86% 30.11 in 10.0 mi ENE 3.5 mph - N/A   Clear
7:15 AM 37.8 °F 33.3 °F 33.4 °F 84% 30.11 in 10.0 mi NE 5.8 mph - N/A   Clear
7:35 AM 40.1 °F 36.1 °F 34.7 °F 81% 30.11 in 10.0 mi NE 5.8 mph - N/A   Clear
7:55 AM 41.0 °F 35.8 °F 34.2 °F 77% 30.11 in 10.0 mi ENE 8.1 mph - N/A   Clear
8:15 AM 42.4 °F 38.8 °F 34.5 °F 74% 30.11 in 10.0 mi ENE 5.8 mph - N/A   Clear
8:35 AM 45.3 °F 41.1 °F 35.4 °F 68% 30.09 in 10.0 mi East 8.1 mph - N/A   Clear
8:55 AM 45.1 °F 39.9 °F 35.4 °F 69% 30.07 in 10.0 mi ENE 10.4 mph - N/A   Clear
9:15 AM 47.5 °F - 35.2 °F 63% 30.06 in 10.0 mi ENE 9.2 mph - N/A   Clear
9:35 AM 49.6 °F - 35.2 °F 58% 30.08 in 10.0 mi East 10.4 mph - N/A   Clear
9:55 AM 49.8 °F - 34.9 °F 56% 30.05 in 10.0 mi ENE 13.8 mph - N/A   Clear
10:15 AM 51.3 °F - 34.7 °F 53% 30.06 in 10.0 mi ESE 12.7 mph 18.4 mph N/A   Clear
10:55 AM 53.4 °F - 33.1 °F 46% 30.05 in 10.0 mi ENE 13.8 mph 21.9 mph N/A   Clear
11:15 AM 54.3 °F - 33.6 °F 46% 30.06 in 10.0 mi East 9.2 mph - N/A   Clear
11:35 AM 54.7 °F - 34.7 °F 47% 30.05 in 10.0 mi East 9.2 mph - N/A   Clear
11:55 AM 55.4 °F - 33.4 °F 43% 30.02 in 10.0 mi East 11.5 mph 17.3 mph N/A   Clear
12:15 PM 55.2 °F - 33.8 °F 44% 30.01 in 10.0 mi ENE 6.9 mph 19.6 mph N/A   Clear
12:35 PM 57.0 °F - 33.1 °F 40% 30.00 in 10.0 mi East 8.1 mph - N/A   Clear
12:55 PM 56.8 °F - 33.3 °F 41% 30.00 in 10.0 mi East 13.8 mph - N/A   Clear
1:15 PM 57.9 °F - 34.0 °F 41% 29.99 in 10.0 mi NNE 5.8 mph - N/A   Clear
1:35 PM 58.5 °F - 35.1 °F 42% 29.97 in 10.0 mi East 9.2 mph - N/A   Clear
1:55 PM 59.7 °F - 37.0 °F 43% 29.97 in 10.0 mi East 5.8 mph 9.2 mph N/A   Clear
2:15 PM 59.0 °F - 35.4 °F 41% 29.96 in 10.0 mi NE 6.9 mph - N/A   Clear
2:35 PM 59.4 °F - 36.1 °F 42% 29.96 in 10.0 mi NE 8.1 mph - N/A   Clear
2:55 PM 59.7 °F - 36.1 °F 41% 29.95 in 10.0 mi ENE 9.2 mph - N/A   Clear
3:15 PM 60.1 °F - 35.6 °F 40% 29.95 in 10.0 mi ESE 5.8 mph - N/A   Clear
3:35 PM 59.9 °F - 35.4 °F 40% 29.93 in 10.0 mi ENE 5.8 mph - N/A   Clear
3:55 PM 59.7 °F - 35.6 °F 41% 29.92 in 10.0 mi Calm Calm - N/A   Clear
4:15 PM 60.1 °F - 36.1 °F 41% 29.91 in 10.0 mi ESE 9.2 mph - N/A   Clear
4:35 PM 59.9 °F - 35.4 °F 40% 29.91 in 10.0 mi East 4.6 mph - N/A   Clear
4:55 PM 59.4 °F - 34.9 °F 40% 29.90 in 10.0 mi NE 8.1 mph - N/A   Clear
5:15 PM 59.2 °F - 35.2 °F 41% 29.89 in 10.0 mi ENE 5.8 mph - N/A   Clear
5:35 PM 59.0 °F - 35.8 °F 42% 29.89 in 10.0 mi East 4.6 mph - N/A   Clear
5:55 PM 58.3 °F - 36.0 °F 43% 29.89 in 10.0 mi ENE 6.9 mph - N/A   Clear
6:15 PM 57.9 °F - 36.1 °F 44% 29.89 in 10.0 mi Calm Calm - N/A   Clear
6:35 PM 57.2 °F - 36.1 °F 45% 29.89 in 10.0 mi Calm Calm - N/A   Clear
6:55 PM 56.3 °F - 37.0 °F 48% 29.89 in 10.0 mi Calm Calm - N/A   Clear
7:15 PM 55.9 °F - 36.5 °F 48% 29.89 in 10.0 mi Calm Calm - N/A   Clear
7:35 PM 55.6 °F - 36.9 °F 49% 29.88 in 10.0 mi NE 3.5 mph - N/A   Clear
7:55 PM 54.9 °F - 37.0 °F 51% 29.89 in 10.0 mi NNE 3.5 mph - N/A   Clear
8:15 PM 54.1 °F - 37.4 °F 53% 29.89 in 10.0 mi NNE 3.5 mph - N/A   Clear
8:35 PM 53.8 °F - 37.9 °F 55% 29.89 in 10.0 mi NE 3.5 mph - N/A   Scattered Clouds
8:55 PM 53.6 °F - 38.5 °F 57% 29.89 in 10.0 mi NE 3.5 mph - N/A   Mostly Cloudy
9:15 PM 52.5 °F - 40.1 °F 63% 29.88 in 10.0 mi ENE 6.9 mph - N/A   Scattered Clouds
9:35 PM 52.7 °F - 38.8 °F 59% 29.88 in 10.0 mi NNE 4.6 mph - N/A   Scattered Clouds
9:55 PM 52.7 °F - 39.2 °F 60% 29.89 in 10.0 mi NNE 4.6 mph - N/A   Mostly Cloudy
10:15 PM 51.8 °F - 40.1 °F 64% 29.87 in 10.0 mi NE 4.6 mph - N/A   Scattered Clouds
10:35 PM 51.8 °F - 40.6 °F 66% 29.86 in 10.0 mi NE 4.6 mph - N/A   Mostly Cloudy
10:55 PM 52.0 °F - 39.9 °F 63% 29.86 in 10.0 mi NE 3.5 mph - N/A   Overcast
11:15 PM 52.0 °F - 39.7 °F 63% 29.85 in 10.0 mi NE 5.8 mph - N/A   Overcast
11:35 PM 52.2 °F - 39.7 °F 63% 29.84 in 10.0 mi NE 5.8 mph - N/A   Overcast